"read_dt","SO2 (ppb)","flags","PMT voltage (V)","lamp voltage (V)","lamp intensity (Hz)","internal temp (C)","react chamber temp (C)","sample flow (l/min)","pres (mmHg)","SO2 bkg (ppb)","SO2 coefficient"
2013-10-24 00:00:00,2126E-4,5C000000,-0724,0962,11008,026.6,045.3,0.394,736.7,01.18,0.508
2013-10-24 00:01:00,8785E-5,5C000000,-0724,0961,11005,026.6,045.3,0.394,736.7,01.18,0.508
2013-10-24 00:02:00,1182E-4,5C000000,-0724,0961,10855,026.6,045.3,0.395,736.7,01.18,0.508
2013-10-24 00:03:00,1468E-4,5C000000,-0724,0962,10919,026.6,045.3,0.394,736.7,01.18,0.508
2013-10-24 00:04:00,9843E-5,5C000000,-0724,0962,10956,026.6,045.3,0.394,736.7,01.18,0.508
2013-10-24 00:05:00,2554E-4,5C000000,-0724,0963,11010,026.6,045.3,0.394,736.7,01.18,0.508
2013-10-24 00:06:00,1761E-4,5C000000,-0724,0962,10891,026.6,045.3,0.395,736.7,01.18,0.508
2013-10-24 00:07:00,1013E-4,5C000000,-0724,0963,10884,026.6,045.3,0.394,736.7,01.18,0.508
2013-10-24 00:08:00,1315E-4,5C000000,-0724,0962,10877,026.6,045.3,0.394,736.6,01.18,0.508
2013-10-24 00:09:00,1876E-4,5C000000,-0724,0962,10959,026.6,045.3,0.394,736.6,01.18,0.508
2013-10-24 00:10:00,5596E-5,5C000000,-0724,0962,10735,026.6,045.3,0.394,736.5,01.18,0.508
2013-10-24 00:11:00,1684E-4,5C000000,-0724,0961,11006,026.6,045.3,0.394,736.5,01.18,0.508
2013-10-24 00:12:00,9263E-5,5C000000,-0724,0961,11023,026.6,045.3,0.394,736.4,01.18,0.508
2013-10-24 00:13:00,9772E-5,5C000000,-0724,0961,10843,026.6,045.3,0.394,736.4,01.18,0.508
2013-10-24 00:14:00,2268E-4,5C000000,-0724,0962,11023,026.7,045.3,0.394,736.4,01.18,0.508
2013-10-24 00:15:00,2458E-4,5C000000,-0724,0962,10932,026.6,045.3,0.394,736.4,01.18,0.508
2013-10-24 00:16:00,1382E-4,5C000000,-0724,0961,10844,026.7,045.3,0.394,736.4,01.18,0.508
2013-10-24 00:17:00,1984E-4,5C000000,-0724,0961,10924,026.6,045.3,0.394,736.4,01.18,0.508
2013-10-24 00:18:00,1181E-4,5C000000,-0724,0962,10930,026.7,045.3,0.394,736.4,01.18,0.508
2013-10-24 00:19:00,1831E-4,5C000000,-0724,0962,10931,026.7,045.3,0.394,736.3,01.18,0.508
2013-10-24 00:20:00,5671E-5,5C000000,-0724,0962,10900,026.7,045.3,0.394,736.2,01.18,0.508
2013-10-24 00:21:00,1264E-4,5C000000,-0724,0962,10887,026.7,045.3,0.394,736.3,01.18,0.508
2013-10-24 00:22:00,1167E-4,5C000000,-0724,0962,10854,026.7,045.3,0.393,736.1,01.18,0.508
2013-10-24 00:23:00,1138E-4,5C000000,-0724,0962,10865,026.7,045.3,0.394,736.0,01.18,0.508
2013-10-24 00:24:00,1960E-4,5C000000,-0724,0962,10923,026.7,045.3,0.394,735.9,01.18,0.508
2013-10-24 00:25:00,1970E-4,5C000000,-0724,0961,10886,026.7,045.3,0.394,736.0,01.18,0.508
2013-10-24 00:26:00,1050E-4,5C000000,-0724,0962,10972,026.7,045.3,0.393,735.9,01.18,0.508
2013-10-24 00:27:00,2118E-4,5C000000,-0724,0962,10821,026.7,045.3,0.393,735.8,01.18,0.508
2013-10-24 00:28:00,2190E-4,5C000000,-0724,0961,10826,026.7,045.3,0.393,736.0,01.18,0.508
2013-10-24 00:29:00,1871E-4,5C000000,-0724,0961,10941,026.7,045.3,0.394,735.8,01.18,0.508
2013-10-24 00:30:00,1390E-4,5C000000,-0724,0962,10924,026.7,045.3,0.394,735.8,01.18,0.508
2013-10-24 00:31:00,1730E-4,5C000000,-0724,0962,10952,026.7,045.3,0.394,735.8,01.18,0.508
2013-10-24 00:32:00,2259E-4,5C000000,-0724,0961,10791,026.7,045.3,0.393,735.8,01.18,0.508
2013-10-24 00:33:00,1757E-4,5C000000,-0724,0961,10823,026.7,045.3,0.393,735.7,01.18,0.508
2013-10-24 00:34:00,1329E-4,5C000000,-0724,0962,10910,026.7,045.3,0.394,735.8,01.18,0.508
2013-10-24 00:35:00,8924E-5,5C000000,-0724,0961,10848,026.7,045.3,0.394,735.6,01.18,0.508
2013-10-24 00:36:00,1693E-4,5C000000,-0724,0962,10864,026.7,045.3,0.394,735.6,01.18,0.508
2013-10-24 00:37:00,1668E-4,5C000000,-0724,0961,10911,026.7,045.3,0.393,735.8,01.18,0.508
2013-10-24 00:38:00,6605E-5,5C000000,-0724,0962,10979,026.7,045.3,0.393,735.7,01.18,0.508
2013-10-24 00:39:00,1641E-4,5C000000,-0724,0962,10961,026.7,045.3,0.394,735.8,01.18,0.508
2013-10-24 00:40:00,1658E-4,5C000000,-0724,0961,10897,026.7,045.3,0.394,735.7,01.18,0.508
2013-10-24 00:41:00,1456E-4,5C000000,-0724,0961,10861,026.7,045.3,0.394,735.8,01.18,0.508
2013-10-24 00:42:00,1567E-4,5C000000,-0724,0961,10897,026.7,045.3,0.394,735.6,01.18,0.508
2013-10-24 00:43:00,1613E-4,5C000000,-0724,0962,10868,026.7,045.3,0.393,735.3,01.18,0.508
2013-10-24 00:44:00,2230E-4,5C000000,-0724,0962,10940,026.6,045.3,0.393,735.3,01.18,0.508
2013-10-24 00:45:00,2137E-4,5C000000,-0724,0962,10990,026.7,045.3,0.394,735.6,01.18,0.508
2013-10-24 00:46:00,8099E-5,5C000000,-0724,0962,10955,026.7,045.3,0.394,735.0,01.18,0.508
2013-10-24 00:47:00,1673E-4,5C000000,-0724,0962,10868,026.6,045.3,0.394,735.3,01.18,0.508
2013-10-24 00:48:00,1403E-4,5C000000,-0724,0961,10972,026.6,045.3,0.393,735.3,01.18,0.508
2013-10-24 00:49:00,1755E-4,5C000000,-0724,0961,10905,026.6,045.3,0.393,735.3,01.18,0.508
2013-10-24 00:50:00,8227E-5,5C000000,-0724,0962,10946,026.6,045.3,0.393,735.5,01.18,0.508
2013-10-24 00:51:00,1340E-4,5C000000,-0724,0961,10950,026.6,045.3,0.394,735.1,01.18,0.508
2013-10-24 00:52:00,1104E-4,5C000000,-0724,0962,10973,026.6,045.3,0.394,735.1,01.18,0.508
2013-10-24 00:53:00,1024E-4,5C000000,-0724,0962,10920,026.6,045.3,0.394,735.5,01.18,0.508
2013-10-24 00:54:00,1262E-4,5C000000,-0724,0962,10845,026.7,045.3,0.393,735.6,01.18,0.508
2013-10-24 00:55:00,1856E-4,5C000000,-0724,0962,10859,026.6,045.3,0.393,735.4,01.18,0.508
2013-10-24 00:56:00,1818E-4,5C000000,-0724,0962,10905,026.7,045.3,0.393,735.4,01.18,0.508
2013-10-24 00:57:00,1718E-4,5C000000,-0724,0961,10835,026.6,045.3,0.394,735.2,01.18,0.508
2013-10-24 00:58:00,1297E-4,5C000000,-0724,0962,10989,026.6,045.3,0.393,735.4,01.18,0.508
2013-10-24 00:59:00,1486E-4,5C000000,-0724,0962,10987,026.6,045.3,0.393,735.6,01.18,0.508
2013-10-24 01:00:00,3697E-5,5C000000,-0724,0961,10857,026.6,045.3,0.393,735.5,01.18,0.508
2013-10-24 01:01:00,1241E-4,5C000000,-0724,0962,10890,026.6,045.3,0.394,735.5,01.18,0.508
2013-10-24 01:02:00,1495E-4,5C000000,-0724,0962,10963,026.6,045.3,0.393,735.4,01.18,0.508
2013-10-24 01:03:00,1520E-4,5C000000,-0724,0962,10935,026.7,045.3,0.393,735.5,01.18,0.508
2013-10-24 01:04:00,2122E-4,5C000000,-0724,0962,10896,026.6,045.3,0.393,735.6,01.18,0.508
2013-10-24 01:05:00,1859E-4,5C000000,-0724,0961,11014,026.7,045.3,0.394,735.6,01.18,0.508
2013-10-24 01:06:00,1836E-4,5C000000,-0724,0962,10829,026.7,045.3,0.394,735.8,01.18,0.508
2013-10-24 01:07:00,1282E-4,5C000000,-0724,0962,10812,026.7,045.3,0.394,735.7,01.18,0.508
2013-10-24 01:08:00,1776E-4,5C000000,-0724,0962,10917,026.7,045.3,0.393,735.6,01.18,0.508
2013-10-24 01:09:00,9867E-5,5C000000,-0724,0962,10971,026.7,045.3,0.393,735.8,01.18,0.508
2013-10-24 01:10:00,4227E-5,5C000000,-0724,0962,10844,026.7,045.3,0.394,735.7,01.18,0.508
2013-10-24 01:11:00,1630E-4,5C000000,-0724,0961,10831,026.7,045.3,0.394,735.7,01.18,0.508
2013-10-24 01:12:00,2184E-4,5C000000,-0724,0962,10932,026.7,045.3,0.394,735.8,01.18,0.508
2013-10-24 01:13:00,1135E-4,5C000000,-0724,0962,10922,026.7,045.3,0.393,735.6,01.18,0.508
2013-10-24 01:14:00,1534E-4,5C000000,-0724,0962,10934,026.7,045.3,0.393,735.6,01.18,0.508
2013-10-24 01:15:00,2268E-4,5C000000,-0724,0962,11009,026.7,045.3,0.394,735.5,01.18,0.508
2013-10-24 01:16:00,1810E-4,5C000000,-0724,0962,10792,026.7,045.3,0.394,735.6,01.18,0.508
2013-10-24 01:17:00,9350E-5,5C000000,-0724,0962,10969,026.7,045.3,0.393,735.8,01.18,0.508
2013-10-24 01:18:00,1647E-4,5C000000,-0724,0963,10905,026.7,045.3,0.393,735.7,01.18,0.508
2013-10-24 01:19:00,2055E-4,5C000000,-0724,0962,10907,026.7,045.3,0.393,735.8,01.18,0.508
2013-10-24 01:20:00,1460E-4,5C000000,-0724,0962,10913,026.7,045.3,0.394,735.8,01.18,0.508
2013-10-24 01:21:00,1863E-4,5C000000,-0724,0962,10879,026.7,045.3,0.394,735.8,01.18,0.508
2013-10-24 01:22:00,1528E-4,5C000000,-0724,0962,10967,026.7,045.3,0.393,735.6,01.18,0.508
2013-10-24 01:23:00,1332E-4,5C000000,-0724,0961,10965,026.7,045.3,0.393,735.8,01.18,0.508
2013-10-24 01:24:00,2028E-4,5C000000,-0724,0963,10907,026.7,045.3,0.393,735.8,01.18,0.508
2013-10-24 01:25:00,6833E-5,5C000000,-0724,0963,10842,026.7,045.3,0.393,735.9,01.18,0.508
2013-10-24 01:26:00,9088E-5,5C000000,-0724,0962,10896,026.8,045.3,0.394,735.9,01.18,0.508
2013-10-24 01:27:00,2006E-4,5C000000,-0724,0962,10827,026.8,045.3,0.394,735.9,01.18,0.508
2013-10-24 01:28:00,1028E-4,5C000000,-0724,0962,10947,026.7,045.3,0.393,735.8,01.18,0.508
2013-10-24 01:29:00,1718E-4,5C000000,-0724,0962,10852,026.8,045.3,0.393,735.9,01.18,0.508
2013-10-24 01:30:00,1437E-4,5C000000,-0724,0961,10841,026.8,045.3,0.394,735.8,01.18,0.508
2013-10-24 01:31:00,1122E-4,5C000000,-0724,0962,10874,026.8,045.3,0.394,735.7,01.18,0.508
2013-10-24 01:32:00,1887E-4,5C000000,-0724,0962,10752,026.8,045.3,0.393,735.9,01.18,0.508
2013-10-24 01:33:00,9718E-5,5C000000,-0724,0961,10955,026.8,045.3,0.393,735.8,01.18,0.508
2013-10-24 01:34:00,1204E-4,5C000000,-0724,0962,11067,026.8,045.3,0.393,735.9,01.18,0.508
2013-10-24 01:35:00,1030E-4,5C000000,-0724,0962,10914,026.8,045.3,0.394,735.9,01.18,0.508
2013-10-24 01:36:00,1516E-4,5C000000,-0724,0963,11035,026.8,045.3,0.394,735.8,01.18,0.508
2013-10-24 01:37:00,2778E-4,5C000000,-0724,0962,10940,026.8,045.3,0.393,736.0,01.18,0.508
2013-10-24 01:38:00,1166E-4,5C000000,-0724,0962,10947,026.8,045.3,0.393,736.0,01.18,0.508
2013-10-24 01:39:00,1289E-4,5C000000,-0724,0962,10966,026.8,045.3,0.393,736.0,01.18,0.508
2013-10-24 01:40:00,1824E-4,5C000000,-0724,0962,10913,026.8,045.3,0.394,735.9,01.18,0.508
2013-10-24 01:41:00,1370E-4,5C000000,-0724,0962,10898,026.8,045.3,0.394,735.7,01.18,0.508
2013-10-24 01:42:00,1579E-4,5C000000,-0724,0962,10954,026.8,045.3,0.393,736.0,01.18,0.508
2013-10-24 01:43:00,1900E-4,5C000000,-0724,0962,10929,026.9,045.3,0.393,735.8,01.18,0.508
2013-10-24 01:44:00,8130E-5,5C000000,-0724,0961,10861,026.8,045.3,0.393,735.8,01.18,0.508
2013-10-24 01:45:00,1173E-4,5C000000,-0724,0962,10989,026.8,045.3,0.394,735.9,01.18,0.508
2013-10-24 01:46:00,1396E-4,5C000000,-0724,0962,10927,026.8,045.3,0.394,735.9,01.18,0.508
2013-10-24 01:47:00,1667E-4,5C000000,-0724,0962,11039,026.8,045.3,0.393,735.8,01.18,0.508
2013-10-24 01:48:00,1864E-4,5C000000,-0724,0961,10955,026.8,045.3,0.393,735.5,01.18,0.508
2013-10-24 01:49:00,1090E-4,5C000000,-0724,0962,10879,026.8,045.3,0.393,735.9,01.18,0.508
2013-10-24 01:50:00,1361E-4,5C000000,-0724,0962,10996,026.8,045.3,0.393,735.8,01.18,0.508
2013-10-24 01:51:00,1376E-4,5C000000,-0724,0962,10925,026.9,045.3,0.394,735.8,01.18,0.508
2013-10-24 01:52:00,1434E-4,5C000000,-0724,0962,10931,026.9,045.3,0.394,735.8,01.18,0.508
2013-10-24 01:53:00,1339E-4,5C000000,-0724,0962,10901,026.8,045.3,0.393,735.9,01.18,0.508
2013-10-24 01:54:00,9433E-5,5C000000,-0724,0962,10863,026.9,045.3,0.393,735.8,01.18,0.508
2013-10-24 01:55:00,2879E-5,5C000000,-0724,0961,10921,026.9,045.3,0.393,735.8,01.18,0.508
2013-10-24 01:56:00,1903E-4,5C000000,-0724,0962,11008,026.9,045.3,0.394,735.8,01.18,0.508
2013-10-24 01:57:00,9707E-5,5C000000,-0724,0962,10887,026.9,045.3,0.393,735.7,01.18,0.508
2013-10-24 01:58:00,9261E-5,5C000000,-0724,0962,10804,026.9,045.3,0.393,735.4,01.18,0.508
2013-10-24 01:59:00,1197E-4,5C000000,-0724,0962,10816,026.9,045.3,0.393,735.9,01.18,0.508
2013-10-24 02:00:00,2247E-4,5C000000,-0724,0962,10955,026.9,045.3,0.393,735.7,01.18,0.508
2013-10-24 02:01:00,1174E-4,5C000000,-0724,0962,10786,026.9,045.3,0.393,735.8,01.18,0.508
2013-10-24 02:02:00,1259E-4,5C000000,-0724,0962,10975,026.9,045.3,0.393,735.9,01.18,0.508
2013-10-24 02:03:00,9563E-5,5C000000,-0724,0962,10951,026.9,045.3,0.393,735.8,01.18,0.508
2013-10-24 02:04:00,8805E-5,5C000000,-0724,0962,10779,026.9,045.3,0.393,735.7,01.18,0.508
2013-10-24 02:05:00,1424E-4,5C000000,-0724,0963,10961,026.9,045.3,0.394,735.6,01.18,0.508
2013-10-24 02:06:00,6158E-5,5C000000,-0724,0962,10850,026.9,045.3,0.393,735.5,01.18,0.508
2013-10-24 02:07:00,1759E-4,5C000000,-0724,0962,11005,026.9,045.3,0.393,735.7,01.18,0.508
2013-10-24 02:08:00,1790E-4,5C000000,-0724,0962,10939,026.9,045.3,0.393,735.6,01.18,0.508
2013-10-24 02:09:00,1614E-4,5C000000,-0724,0963,11008,026.9,045.3,0.393,735.6,01.18,0.508
2013-10-24 02:10:00,1205E-4,5C000000,-0724,0963,10757,026.9,045.3,0.393,735.6,01.18,0.508
2013-10-24 02:11:00,1200E-4,5C000000,-0724,0962,10917,026.9,045.3,0.393,735.5,01.18,0.508
2013-10-24 02:12:00,1789E-4,5C000000,-0724,0962,10944,026.9,045.3,0.393,735.5,01.18,0.508
2013-10-24 02:13:00,1118E-4,5C000000,-0724,0962,11057,026.9,045.3,0.393,735.3,01.18,0.508
2013-10-24 02:14:00,1130E-4,5C000000,-0724,0962,10906,026.9,045.3,0.393,735.5,01.18,0.508
2013-10-24 02:15:00,1590E-4,5C000000,-0724,0962,11026,026.9,045.3,0.393,735.3,01.18,0.508
2013-10-24 02:16:00,1890E-4,5C000000,-0724,0962,10728,026.9,045.3,0.393,735.2,01.18,0.508
2013-10-24 02:17:00,1976E-4,5C000000,-0724,0962,10921,026.9,045.3,0.393,735.3,01.18,0.508
2013-10-24 02:18:00,1251E-4,5C000000,-0724,0963,10945,026.9,045.3,0.393,735.2,01.18,0.508
2013-10-24 02:19:00,7981E-5,5C000000,-0724,0962,10901,027.0,045.3,0.393,735.3,01.18,0.508
2013-10-24 02:20:00,6829E-5,5C000000,-0724,0963,10928,027.0,045.3,0.393,735.0,01.18,0.508
2013-10-24 02:21:00,1158E-4,5C000000,-0724,0962,10843,026.9,045.3,0.392,735.1,01.18,0.508
2013-10-24 02:22:00,7939E-5,5C000000,-0724,0962,10934,027.0,045.3,0.392,735.2,01.18,0.508
2013-10-24 02:23:00,1593E-4,5C000000,-0724,0962,10886,026.9,045.3,0.393,734.9,01.18,0.508
2013-10-24 02:24:00,1403E-4,5C000000,-0724,0963,10871,027.0,045.3,0.393,735.0,01.18,0.508
2013-10-24 02:25:00,1091E-4,5C000000,-0724,0963,10809,027.0,045.3,0.393,734.9,01.18,0.508
2013-10-24 02:26:00,1003E-4,5C000000,-0724,0962,10976,027.0,045.3,0.393,734.9,01.18,0.508
2013-10-24 02:27:00,1568E-4,5C000000,-0724,0962,10936,026.9,045.3,0.393,734.9,01.18,0.508
2013-10-24 02:28:00,1702E-4,5C000000,-0724,0964,10938,027.0,045.3,0.393,734.9,01.18,0.508
2013-10-24 02:29:00,2152E-4,5C000000,-0724,0962,10890,027.0,045.3,0.393,734.6,01.18,0.508
2013-10-24 02:30:00,1190E-4,5C000000,-0724,0963,10859,026.9,045.3,0.393,734.9,01.18,0.508
2013-10-24 02:31:00,1563E-4,5C000000,-0724,0963,11019,027.0,045.3,0.392,734.8,01.18,0.508
2013-10-24 02:32:00,2060E-4,5C000000,-0724,0962,10939,027.0,045.3,0.392,734.7,01.18,0.508
2013-10-24 02:33:00,1558E-4,5C000000,-0724,0961,10847,027.0,045.3,0.392,734.6,01.18,0.508
2013-10-24 02:34:00,1752E-4,5C000000,-0724,0962,10835,027.0,045.3,0.392,734.6,01.18,0.508
2013-10-24 02:35:00,1395E-4,5C000000,-0724,0962,10870,027.0,045.3,0.393,734.7,01.18,0.508
2013-10-24 02:36:00,9428E-5,5C000000,-0724,0962,10795,027.0,045.3,0.393,734.8,01.18,0.508
2013-10-24 02:37:00,1938E-4,5C000000,-0724,0963,11026,027.0,045.3,0.393,734.7,01.18,0.508
2013-10-24 02:38:00,1543E-4,5C000000,-0724,0962,10957,027.0,045.3,0.393,734.7,01.18,0.508
2013-10-24 02:39:00,4632E-5,5C000000,-0724,0963,10886,027.0,045.3,0.392,734.8,01.18,0.508
2013-10-24 02:40:00,4334E-5,5C000000,-0724,0963,10826,027.0,045.3,0.392,734.7,01.18,0.508
2013-10-24 02:41:00,1311E-4,5C000000,-0724,0962,10910,027.0,045.3,0.392,734.8,01.18,0.508
2013-10-24 02:42:00,1024E-4,5C000000,-0724,0963,10790,027.0,045.3,0.393,734.8,01.18,0.508
2013-10-24 02:43:00,1214E-4,5C000000,-0724,0962,10920,027.0,045.3,0.393,734.8,01.18,0.508
2013-10-24 02:44:00,1101E-4,5C000000,-0724,0963,11036,027.0,045.3,0.393,734.7,01.18,0.508
2013-10-24 02:45:00,1413E-4,5C000000,-0724,0962,10887,027.0,045.3,0.393,734.8,01.18,0.508
2013-10-24 02:46:00,5697E-5,5C000000,-0724,0962,10929,027.0,045.3,0.392,734.8,01.18,0.508
2013-10-24 02:47:00,1655E-4,5C000000,-0724,0963,10925,027.0,045.3,0.392,734.7,01.18,0.508
2013-10-24 02:48:00,1365E-4,5C000000,-0724,0962,10980,027.0,045.3,0.392,734.8,01.18,0.508
2013-10-24 02:49:00,1413E-4,5C000000,-0724,0963,11033,027.0,045.3,0.393,734.8,01.18,0.508
2013-10-24 02:50:00,1626E-4,5C000000,-0724,0962,10991,027.0,045.3,0.393,735.0,01.18,0.508
2013-10-24 02:51:00,8375E-5,5C000000,-0724,0963,10884,027.0,045.3,0.393,735.0,01.18,0.508
2013-10-24 02:52:00,1244E-4,5C000000,-0724,0962,10935,027.0,045.3,0.393,735.0,01.18,0.508
2013-10-24 02:53:00,8827E-5,5C000000,-0724,0963,10896,027.0,045.3,0.393,735.0,01.18,0.508
2013-10-24 02:54:00,1207E-4,5C000000,-0724,0962,10883,027.0,045.3,0.392,734.8,01.18,0.508
2013-10-24 02:55:00,1847E-4,5C000000,-0724,0964,10919,027.0,045.3,0.392,734.9,01.18,0.508
2013-10-24 02:56:00,1124E-4,5C000000,-0724,0962,10862,027.0,045.3,0.392,735.0,01.18,0.508
2013-10-24 02:57:00,1139E-4,5C000000,-0724,0963,10932,027.0,045.3,0.393,735.1,01.18,0.508
2013-10-24 02:58:00,1622E-4,5C000000,-0724,0962,10993,027.1,045.3,0.393,735.1,01.18,0.508
2013-10-24 02:59:00,1689E-4,5C000000,-0724,0962,10994,027.0,045.3,0.393,735.1,01.18,0.508
2013-10-24 03:00:00,1692E-4,5C000000,-0724,0963,10966,027.1,045.3,0.392,735.0,01.18,0.508
2013-10-24 03:01:00,1735E-4,5C000000,-0724,0963,10901,027.1,045.3,0.392,735.2,01.18,0.508
2013-10-24 03:02:00,1687E-4,5C000000,-0724,0962,10964,027.1,045.3,0.392,735.1,01.18,0.508
2013-10-24 03:03:00,1217E-4,5C000000,-0724,0963,10882,027.1,045.3,0.393,735.1,01.18,0.508
2013-10-24 03:04:00,1226E-4,5C000000,-0724,0964,10851,027.1,045.3,0.393,735.1,01.18,0.508
2013-10-24 03:05:00,1285E-4,5C000000,-0724,0963,10896,027.1,045.3,0.393,735.2,01.18,0.508
2013-10-24 03:06:00,1646E-4,5C000000,-0724,0962,10893,027.1,045.3,0.392,735.1,01.18,0.508
2013-10-24 03:07:00,1535E-4,5C000000,-0724,0962,10976,027.1,045.3,0.392,735.2,01.18,0.508
2013-10-24 03:08:00,8064E-5,5C000000,-0724,0962,10831,027.1,045.3,0.392,735.3,01.18,0.508
2013-10-24 03:09:00,2291E-4,5C000000,-0724,0962,10941,027.1,045.3,0.393,735.3,01.18,0.508
2013-10-24 03:10:00,6751E-5,5C000000,-0724,0963,10861,027.1,045.3,0.393,735.3,01.18,0.508
2013-10-24 03:11:00,2189E-4,5C000000,-0724,0964,10953,027.1,045.3,0.393,735.3,01.18,0.508
2013-10-24 03:12:00,2400E-4,5C000000,-0724,0963,10935,027.1,045.3,0.393,735.3,01.18,0.508
2013-10-24 03:13:00,8333E-5,5C000000,-0724,0963,10948,027.2,045.3,0.392,735.2,01.18,0.508
2013-10-24 03:14:00,1453E-4,5C000000,-0724,0963,10892,027.2,045.3,0.392,735.2,01.18,0.508
2013-10-24 03:15:00,2430E-4,5C000000,-0724,0963,10796,027.2,045.3,0.393,735.2,01.18,0.508
2013-10-24 03:16:00,4805E-5,5C000000,-0724,0963,10871,027.1,045.3,0.393,735.2,01.18,0.508
2013-10-24 03:17:00,1836E-4,5C000000,-0724,0963,10930,027.1,045.3,0.393,735.3,01.18,0.508
2013-10-24 03:18:00,2110E-4,5C000000,-0724,0963,10862,027.2,045.3,0.392,735.1,01.18,0.508
2013-10-24 03:19:00,2008E-4,5C000000,-0724,0963,10999,027.2,045.3,0.392,735.3,01.18,0.508
2013-10-24 03:20:00,1577E-4,5C000000,-0724,0963,10815,027.2,045.3,0.392,735.1,01.18,0.508
2013-10-24 03:21:00,7911E-5,5C000000,-0724,0963,10985,027.2,045.3,0.393,735.2,01.18,0.508
2013-10-24 03:22:00,1786E-4,5C000000,-0724,0963,10924,027.2,045.3,0.393,735.2,01.18,0.508
2013-10-24 03:23:00,1444E-4,5C000000,-0724,0963,10792,027.2,045.3,0.393,735.2,01.18,0.508
2013-10-24 03:24:00,1189E-4,5C000000,-0724,0964,10889,027.2,045.3,0.392,735.2,01.18,0.508
2013-10-24 03:25:00,9886E-5,5C000000,-0724,0963,10756,027.2,045.3,0.392,735.2,01.18,0.508
2013-10-24 03:26:00,1897E-4,5C000000,-0724,0963,10802,027.2,045.3,0.392,735.2,01.18,0.508
2013-10-24 03:27:00,1231E-4,5C000000,-0724,0964,10885,027.2,045.3,0.392,735.2,01.18,0.508
2013-10-24 03:28:00,1636E-4,5C000000,-0724,0964,10948,027.2,045.3,0.392,735.1,01.18,0.508
2013-10-24 03:29:00,2377E-4,5C000000,-0724,0963,10908,027.2,045.3,0.392,735.3,01.18,0.508
2013-10-24 03:30:00,8543E-5,5C000000,-0724,0963,10881,027.3,045.3,0.392,735.3,01.18,0.508
2013-10-24 03:31:00,1316E-4,5C000000,-0724,0963,10936,027.3,045.3,0.392,735.3,01.18,0.508
2013-10-24 03:32:00,9200E-5,5C000000,-0724,0963,10951,027.2,045.3,0.393,735.3,01.18,0.508
2013-10-24 03:33:00,1452E-4,5C000000,-0724,0963,10775,027.3,045.3,0.393,735.3,01.18,0.508
2013-10-24 03:34:00,1618E-4,5C000000,-0724,0963,10872,027.3,045.3,0.393,735.3,01.18,0.508
2013-10-24 03:35:00,7759E-5,5C000000,-0724,0963,10875,027.3,045.3,0.393,735.3,01.18,0.508
2013-10-24 03:36:00,1457E-4,5C000000,-0724,0963,10925,027.3,045.3,0.392,735.3,01.18,0.508
2013-10-24 03:37:00,1197E-4,5C000000,-0724,0963,10786,027.3,045.3,0.392,735.3,01.18,0.508
2013-10-24 03:38:00,1501E-4,5C000000,-0724,0964,10991,027.3,045.3,0.392,735.1,01.18,0.508
2013-10-24 03:39:00,7772E-5,5C000000,-0724,0963,10909,027.3,045.3,0.392,735.1,01.18,0.508
2013-10-24 03:40:00,1008E-4,5C000000,-0724,0963,10868,027.3,045.3,0.392,735.2,01.18,0.508
2013-10-24 03:41:00,1182E-4,5C000000,-0724,0963,10841,027.3,045.3,0.393,735.3,01.18,0.508
2013-10-24 03:42:00,2359E-4,5C000000,-0724,0963,10968,027.3,045.3,0.393,735.2,01.18,0.508
2013-10-24 03:43:00,1697E-4,5C000000,-0724,0963,11008,027.3,045.3,0.392,735.2,01.18,0.508
2013-10-24 03:44:00,8162E-5,5C000000,-0724,0963,10847,027.4,045.3,0.392,735.2,01.18,0.508
2013-10-24 03:45:00,1775E-4,5C000000,-0724,0963,11030,027.3,045.3,0.392,735.2,01.18,0.508
2013-10-24 03:46:00,1591E-4,5C000000,-0724,0963,10918,027.3,045.3,0.392,735.2,01.18,0.508
2013-10-24 03:47:00,9878E-5,5C000000,-0724,0963,10984,027.4,045.3,0.392,735.2,01.18,0.508
2013-10-24 03:48:00,1263E-4,5C000000,-0724,0964,10942,027.3,045.3,0.392,735.1,01.18,0.508
2013-10-24 03:49:00,1855E-4,5C000000,-0724,0963,10934,027.4,045.3,0.392,735.1,01.18,0.508
2013-10-24 03:50:00,1455E-4,5C000000,-0724,0964,10938,027.4,045.3,0.392,735.1,01.18,0.508
2013-10-24 03:51:00,1143E-4,5C000000,-0724,0963,10917,027.4,045.3,0.392,735.1,01.18,0.508
2013-10-24 03:52:00,7526E-5,5C000000,-0724,0963,10900,027.4,045.3,0.392,735.0,01.18,0.508
2013-10-24 03:53:00,1056E-4,5C000000,-0724,0963,10940,027.4,045.3,0.392,735.1,01.18,0.508
2013-10-24 03:54:00,9601E-5,5C000000,-0724,0963,10930,027.4,045.4,0.392,735.0,01.18,0.508
2013-10-24 03:55:00,1383E-4,5C000000,-0724,0963,10872,027.4,045.3,0.392,734.9,01.18,0.508
2013-10-24 03:56:00,1610E-4,5C000000,-0724,0963,10882,027.4,045.3,0.392,734.8,01.18,0.508
2013-10-24 03:57:00,1419E-4,5C000000,-0724,0963,10924,027.4,045.3,0.392,734.8,01.18,0.508
2013-10-24 03:58:00,1973E-4,5C000000,-0724,0964,10864,027.4,045.3,0.392,734.8,01.18,0.508
2013-10-24 03:59:00,9903E-5,5C000000,-0724,0964,10930,027.4,045.3,0.392,734.8,01.18,0.508
2013-10-24 04:00:00,6206E-5,5C000000,-0724,0963,10932,027.4,045.3,0.392,734.8,01.18,0.508
2013-10-24 04:01:00,1861E-4,5C000000,-0724,0964,10920,027.4,045.3,0.392,734.9,01.18,0.508
2013-10-24 04:02:00,1543E-4,5C000000,-0724,0964,10953,027.4,045.3,0.392,734.8,01.18,0.508
2013-10-24 04:03:00,7333E-5,5C000000,-0724,0963,10847,027.4,045.3,0.392,734.8,01.18,0.508
2013-10-24 04:04:00,1090E-4,5C000000,-0724,0965,10923,027.4,045.3,0.392,734.9,01.18,0.508
2013-10-24 04:05:00,1884E-4,5C000000,-0724,0963,10944,027.4,045.3,0.392,734.8,01.18,0.508
2013-10-24 04:06:00,1462E-4,5C000000,-0724,0963,10889,027.4,045.3,0.392,734.9,01.18,0.508
2013-10-24 04:07:00,1261E-4,5C000000,-0724,0964,10751,027.5,045.3,0.391,734.8,01.18,0.508
2013-10-24 04:08:00,2463E-4,5C000000,-0724,0963,10964,027.5,045.3,0.391,734.8,01.18,0.508
2013-10-24 04:09:00,1628E-4,5C000000,-0724,0963,10755,027.5,045.3,0.392,734.8,01.18,0.508
2013-10-24 04:10:00,9545E-5,5C000000,-0724,0963,10861,027.4,045.3,0.392,734.8,01.18,0.508
2013-10-24 04:11:00,1897E-4,5C000000,-0724,0964,10964,027.5,045.3,0.392,734.8,01.18,0.508
2013-10-24 04:12:00,1244E-4,5C000000,-0724,0963,10828,027.5,045.3,0.392,734.8,01.18,0.508
2013-10-24 04:13:00,2043E-4,5C000000,-0724,0963,10939,027.5,045.3,0.392,734.8,01.18,0.508
2013-10-24 04:14:00,9768E-5,5C000000,-0724,0963,10840,027.5,045.3,0.392,734.8,01.18,0.508
2013-10-24 04:15:00,9788E-5,5C000000,-0724,0963,10847,027.5,045.3,0.392,734.7,01.18,0.508
2013-10-24 04:16:00,1875E-4,5C000000,-0724,0963,10939,027.5,045.3,0.392,734.6,01.18,0.508
2013-10-24 04:17:00,1564E-4,5C000000,-0724,0964,10900,027.5,045.3,0.392,734.7,01.18,0.508
2013-10-24 04:18:00,1471E-4,5C000000,-0724,0964,10889,027.5,045.3,0.391,734.7,01.18,0.508
2013-10-24 04:19:00,9001E-5,5C000000,-0724,0963,10852,027.5,045.3,0.391,734.7,01.18,0.508
2013-10-24 04:20:00,8314E-5,5C000000,-0724,0963,10898,027.5,045.3,0.392,734.6,01.18,0.508